Location: Borovka
(49.7741°N, 14.5280°E)
Time: 01:20:27
(UTC+00:00)

BlueWalker 3 - Pass Details

Date: 23 January 2026
Orbit: 451 x 461 km, 53.2° (Epoch: 13 February)

Event Time Altitude Azimuth Distance (km) Brightness Sun altitude
Rises 17:47:41 0° 235° (SW) 2,449 6.5 -20.0°
Reaches altitude 10° 17:49:49 10° 233° (SW) 1,579 5.3 -20.4°
Enters shadow 17:53:06 62° 176° (S) 513 1.9 -20.9°
